IBE3SD LEMD-KJFK

Flight info

Callsign IBE3SD
Flight time N/A
Altitude 37000
Route ZMR N733 DESAT/N0473F380 DCT STG DCT KOPAS/M081F380 DCT 45N020W 46N030W 46N040W 45N050W DCT RAFIN/N0466F400 N82A KANNI DCT PLYMM PARCH3
Aircraft A333/H-SDE3GHIJ2J3J5M1RVWXY/LB2D1

Departure

Time N/A
Airport Adolfo Suárez Madrid–Barajas Airport (LEMD)

Arrival

Time 2026-05-05 22:18
Airport John F. Kennedy International Airport (KJFK)
Time Latitude Longitude Altitude Speed Heading
2026-05-05 21:44 41.96279 -70.57582 36899 ft 423 kts 236°
2026-05-05 21:44 41.94535 -70.60780 36890 ft 425 kts 236°
2026-05-05 21:45 41.91032 -70.67192 36893 ft 426 kts 236°
2026-05-05 21:45 41.87526 -70.73596 36900 ft 425 kts 236°
2026-05-05 21:46 41.84022 -70.79987 36899 ft 425 kts 236°
2026-05-05 21:46 41.80512 -70.86373 36885 ft 425 kts 236°
2026-05-05 21:47 41.76990 -70.92770 36924 ft 428 kts 236°
2026-05-05 21:47 41.73450 -70.99185 36925 ft 428 kts 236°
2026-05-05 21:48 41.69905 -71.05595 36924 ft 428 kts 236°
2026-05-05 21:48 41.66356 -71.11999 36925 ft 428 kts 236°
2026-05-05 21:49 41.62799 -71.18402 36920 ft 429 kts 236°
2026-05-05 21:49 41.59235 -71.24806 36466 ft 430 kts 236°
2026-05-05 21:50 41.57453 -71.28004 35893 ft 430 kts 236°
2026-05-05 21:50 41.55661 -71.31216 35313 ft 431 kts 236°
2026-05-05 21:50 41.53869 -71.34425 34693 ft 432 kts 236°
2026-05-05 21:50 41.52065 -71.37651 34049 ft 435 kts 237°
2026-05-05 21:51 41.50251 -71.40893 33306 ft 437 kts 237°
2026-05-05 21:51 41.48426 -71.44152 32558 ft 440 kts 237°
2026-05-05 21:51 41.46586 -71.47432 31829 ft 443 kts 236°
2026-05-05 21:51 41.44737 -71.50725 31125 ft 445 kts 236°
2026-05-05 21:52 41.41030 -71.57312 30009 ft 442 kts 236°
2026-05-05 21:52 41.39198 -71.60561 29565 ft 436 kts 236°
2026-05-05 21:52 41.37998 -71.62688 29219 ft 433 kts 236°
2026-05-05 21:53 41.36194 -71.65883 28676 ft 430 kts 236°
2026-05-05 21:53 41.34407 -71.69046 28152 ft 426 kts 236°
2026-05-05 21:53 41.32631 -71.72188 27644 ft 423 kts 236°
2026-05-05 21:53 41.30872 -71.75295 27155 ft 419 kts 236°
2026-05-05 21:54 41.28561 -71.79373 26501 ft 414 kts 236°
2026-05-05 21:54 41.26833 -71.82418 26036 ft 411 kts 236°
2026-05-05 21:54 41.25673 -71.84461 25707 ft 409 kts 236°
2026-05-05 21:54 41.23965 -71.87467 25221 ft 406 kts 236°
2026-05-05 21:55 41.22272 -71.90443 24771 ft 402 kts 236°
2026-05-05 21:55 41.20590 -71.93397 24334 ft 399 kts 236°
2026-05-05 21:55 41.18927 -71.96312 24028 ft 394 kts 236°
2026-05-05 21:55 41.17275 -71.99210 23928 ft 395 kts 236°
2026-05-05 21:56 41.15610 -72.02126 23926 ft 397 kts 236°
2026-05-05 21:56 41.13941 -72.05047 23924 ft 398 kts 236°
2026-05-05 21:56 41.12268 -72.07971 23916 ft 397 kts 236°
2026-05-05 21:56 41.10637 -72.10910 23469 ft 395 kts 240°
2026-05-05 21:57 41.09427 -72.14157 22900 ft 390 kts 251°
2026-05-05 21:57 41.08540 -72.17523 22446 ft 385 kts 253°
2026-05-05 21:57 41.07715 -72.20881 21953 ft 381 kts 253°
2026-05-05 21:57 41.06903 -72.24205 21446 ft 378 kts 253°
2026-05-05 21:58 41.06095 -72.27498 20978 ft 374 kts 253°
2026-05-05 21:58 41.05302 -72.30711 20529 ft 370 kts 252°
2026-05-05 21:58 41.04503 -72.33932 20035 ft 367 kts 252°
2026-05-05 21:58 41.03707 -72.37136 19535 ft 364 kts 252°
2026-05-05 21:59 41.02914 -72.40319 19023 ft 363 kts 252°
2026-05-05 21:59 41.02126 -72.43480 18543 ft 360 kts 252°
2026-05-05 21:59 41.01341 -72.46619 18074 ft 357 kts 252°
2026-05-05 21:59 41.00562 -72.49731 17542 ft 355 kts 252°
2026-05-05 22:00 40.99790 -72.52813 17061 ft 351 kts 252°
2026-05-05 22:00 40.99024 -72.55864 16574 ft 347 kts 252°
2026-05-05 22:00 40.98265 -72.58882 16089 ft 344 kts 252°
2026-05-05 22:00 40.97511 -72.61876 15646 ft 341 kts 252°
2026-05-05 22:01 40.96768 -72.64828 15209 ft 337 kts 252°
2026-05-05 22:01 40.96027 -72.67763 14722 ft 334 kts 252°
2026-05-05 22:01 40.95293 -72.70670 14253 ft 332 kts 252°
2026-05-05 22:01 40.94564 -72.73551 13788 ft 329 kts 252°
2026-05-05 22:02 40.93838 -72.76409 13277 ft 326 kts 251°
2026-05-05 22:02 40.92893 -72.79120 12733 ft 326 kts 239°
2026-05-05 22:02 40.91418 -72.81338 12237 ft 327 kts 224°
2026-05-05 22:02 40.89632 -72.83164 11943 ft 320 kts 220°
2026-05-05 22:03 40.87868 -72.84832 11921 ft 304 kts 219°
2026-05-05 22:03 40.86190 -72.86412 11847 ft 290 kts 220°
2026-05-05 22:03 40.84582 -72.87937 11717 ft 279 kts 220°
2026-05-05 22:03 40.83030 -72.89415 11507 ft 272 kts 220°
2026-05-05 22:04 40.81508 -72.90870 11184 ft 269 kts 220°
2026-05-05 22:04 40.80000 -72.92313 10870 ft 267 kts 220°
2026-05-05 22:04 40.78507 -72.93743 10533 ft 265 kts 220°
2026-05-05 22:04 40.77020 -72.95166 10225 ft 263 kts 220°
2026-05-05 22:05 40.75541 -72.96580 9839 ft 263 kts 221°
2026-05-05 22:05 40.74060 -72.97996 9455 ft 263 kts 221°
2026-05-05 22:05 40.72578 -72.99411 9099 ft 261 kts 221°
2026-05-05 22:05 40.71116 -73.00805 8761 ft 258 kts 220°
2026-05-05 22:06 40.69759 -73.02301 8462 ft 251 kts 231°
2026-05-05 22:06 40.68548 -73.06437 7922 ft 247 kts 265°
2026-05-05 22:06 40.68531 -73.08708 7910 ft 249 kts 268°
2026-05-05 22:07 40.68558 -73.10996 7866 ft 250 kts 268°
2026-05-05 22:07 40.68584 -73.13308 7420 ft 254 kts 268°
2026-05-05 22:07 40.68605 -73.15600 7145 ft 250 kts 268°
2026-05-05 22:07 40.68623 -73.17885 7027 ft 245 kts 268°
2026-05-05 22:08 40.68637 -73.20134 7018 ft 246 kts 268°
2026-05-05 22:08 40.68648 -73.22341 6942 ft 247 kts 268°
2026-05-05 22:08 40.68658 -73.24628 6512 ft 250 kts 268°
2026-05-05 22:08 40.68669 -73.26948 6244 ft 245 kts 267°
2026-05-05 22:09 40.68679 -73.29164 6045 ft 242 kts 267°
2026-05-05 22:09 40.68688 -73.31390 6014 ft 243 kts 267°
2026-05-05 22:09 40.68698 -73.33639 5780 ft 248 kts 268°
2026-05-05 22:09 40.68940 -73.35892 5626 ft 251 kts 283°
2026-05-05 22:10 40.69780 -73.37938 5586 ft 257 kts 298°
2026-05-05 22:10 40.70734 -73.39937 5201 ft 259 kts 293°
2026-05-05 22:10 40.71564 -73.41982 4873 ft 256 kts 291°
2026-05-05 22:10 40.72368 -73.44059 4586 ft 252 kts 291°
2026-05-05 22:11 40.73153 -73.46119 4522 ft 252 kts 290°
2026-05-05 22:11 40.73929 -73.48164 4518 ft 243 kts 290°
2026-05-05 22:11 40.74659 -73.50076 4519 ft 224 kts 290°
2026-05-05 22:11 40.75336 -73.51859 4403 ft 211 kts 289°
2026-05-05 22:12 40.75973 -73.53547 4242 ft 202 kts 289°
2026-05-05 22:12 40.76590 -73.55191 3992 ft 198 kts 288°
2026-05-05 22:12 40.77200 -73.56821 3681 ft 198 kts 288°
2026-05-05 22:12 40.77808 -73.58447 3380 ft 198 kts 288°
2026-05-05 22:13 40.78355 -73.60096 3079 ft 194 kts 279°
2026-05-05 22:13 40.78560 -73.61786 2877 ft 180 kts 264°
2026-05-05 22:13 40.78357 -73.63355 2592 ft 174 kts 246°
2026-05-05 22:13 40.77778 -73.64729 2512 ft 171 kts 230°
2026-05-05 22:14 40.76912 -73.65788 2497 ft 173 kts 217°
2026-05-05 22:14 40.75915 -73.66621 2514 ft 162 kts 214°
2026-05-05 22:14 40.74956 -73.67337 2474 ft 154 kts 210°
2026-05-05 22:14 40.74035 -73.68010 2192 ft 154 kts 213°
2026-05-05 22:15 40.73121 -73.68742 1963 ft 152 kts 213°
2026-05-05 22:15 40.72231 -73.69435 1753 ft 145 kts 212°
2026-05-05 22:15 40.71371 -73.70106 1575 ft 143 kts 211°
2026-05-05 22:15 40.70517 -73.70775 1388 ft 143 kts 212°
2026-05-05 22:16 40.69662 -73.71447 1194 ft 144 kts 210°
2026-05-05 22:16 40.68784 -73.72137 1010 ft 149 kts 210°
2026-05-05 22:16 40.67910 -73.72867 822 ft 148 kts 213°
2026-05-05 22:16 40.67027 -73.73588 582 ft 149 kts 206°
2026-05-05 22:17 40.66125 -73.74274 389 ft 149 kts 209°
2026-05-05 22:17 40.65249 -73.74940 226 ft 141 kts 208°
2026-05-05 22:17 40.64430 -73.75571 59 ft 128 kts 208°
2026-05-05 22:17 40.63721 -73.76108 30 ft 104 kts 209°
2026-05-05 22:18 40.63193 -73.76517 31 ft 74 kts 211°
2026-05-05 22:18 40.62943 -73.76862 27 ft 30 kts 237°
2026-05-05 22:18 40.62925 -73.76907 28 ft 0 kts 250°
2026-05-05 22:19 40.62927 -73.76938 27 ft 8 kts 275°
2026-05-05 22:19 40.62951 -73.77009 28 ft 7 kts 303°
2026-05-05 22:19 40.62980 -73.77072 29 ft 8 kts 299°
2026-05-05 22:19 40.63009 -73.77141 27 ft 9 kts 298°
2026-05-05 22:20 40.63042 -73.77216 28 ft 10 kts 301°
2026-05-05 22:20 40.63080 -73.77299 30 ft 11 kts 301°
2026-05-05 22:20 40.63123 -73.77393 31 ft 12 kts 301°
2026-05-05 22:20 40.63169 -73.77495 31 ft 13 kts 301°
2026-05-05 22:21 40.63217 -73.77601 27 ft 14 kts 301°
2026-05-05 22:21 40.63266 -73.77709 28 ft 14 kts 301°
2026-05-05 22:21 40.63318 -73.77826 26 ft 16 kts 301°
2026-05-05 22:21 40.63370 -73.77943 29 ft 13 kts 299°
2026-05-05 22:22 40.63417 -73.78054 27 ft 14 kts 299°
2026-05-05 22:22 40.63468 -73.78171 28 ft 15 kts 301°
2026-05-05 22:22 40.63524 -73.78291 30 ft 16 kts 301°
2026-05-05 22:22 40.63582 -73.78418 28 ft 16 kts 300°
2026-05-05 22:23 40.63639 -73.78551 29 ft 17 kts 299°
2026-05-05 22:23 40.63701 -73.78680 28 ft 17 kts 301°
2026-05-05 22:23 40.63765 -73.78818 26 ft 18 kts 301°
2026-05-05 22:23 40.63826 -73.78965 29 ft 19 kts 300°
2026-05-05 22:24 40.63893 -73.79117 27 ft 20 kts 300°
2026-05-05 22:24 40.63966 -73.79268 27 ft 19 kts 303°
2026-05-05 22:24 40.64033 -73.79413 27 ft 19 kts 300°
2026-05-05 22:24 40.64128 -73.79504 27 ft 16 kts 351°
2026-05-05 22:25 40.64239 -73.79501 27 ft 17 kts
2026-05-05 22:25 40.64357 -73.79492 27 ft 17 kts
2026-05-05 22:25 40.64478 -73.79498 26 ft 18 kts 355°
2026-05-05 22:25 40.64603 -73.79531 25 ft 19 kts 335°
2026-05-05 22:26 40.64713 -73.79624 26 ft 20 kts 325°
2026-05-05 22:26 40.64760 -73.79660 25 ft 2 kts 320°
2026-05-05 22:26 40.64768 -73.79659 24 ft 1 kts
2026-05-05 22:26 40.64772 -73.79646 25 ft 2 kts 66°
2026-05-05 22:27 40.64775 -73.79614 25 ft 3 kts 86°
2026-05-05 22:27 40.64776 -73.79579 25 ft 4 kts 86°
2026-05-05 22:27 40.64779 -73.79537 23 ft 4 kts 84°
2026-05-05 22:27 40.64786 -73.79518 22 ft 3 kts 66°
2026-05-05 22:28 40.64798 -73.79487 24 ft 6 kts 59°
2026-05-05 22:28 40.64829 -73.79419 24 ft 11 kts 59°
2026-05-05 22:28 40.64870 -73.79324 24 ft 10 kts 60°
2026-05-05 22:28 40.64912 -73.79227 22 ft 7 kts 63°
2026-05-05 22:29 40.64908 -73.79200 21 ft 1 kts 134°
2026-05-05 22:29 40.64889 -73.79185 22 ft 2 kts 159°
2026-05-05 22:29 40.64865 -73.79181 25 ft 5 kts 171°
2026-05-05 22:29 40.64864 -73.79180 25 ft 0 kts 171°